When you browse on this site, cookies collect data to enhance your experience and personalize the content and advertising you see.
Visit our Privacy Policy to learn more. By continuing to use the site, you agree to this use of cookies and data.
  • In Schweiz
  • Länderverzeichnis
  • Für 7 Tage
  • Wassertemperatur
  • Wetterkarte
  • Widgets
  • user-avatar
    Anmelden

    Stündliche Wetter Xiulin

    Heute, 28 Mai, Donnerstag

    Zeit Temperatur Niederschläge Wind Luftdruck Luftfeuchtigkeit
    00:00 +25°C° 0 mm 2 m/S 754 mmHg 64%
    01:00 +25°C° 0 mm 2 m/S 754 mmHg 65%
    02:00 +25°C° 0 mm 2 m/S 754 mmHg 66%
    03:00 +24°C° 0 mm 2 m/S 754 mmHg 67%
    04:00 +24°C° 0 mm 1 m/S 754 mmHg 68%
    05:00 +25°C° 0 mm 2 m/S 754 mmHg 68%
    06:00 +26°C° 0 mm 2 m/S 755 mmHg 68%
    07:00 +27°C° 0 mm 2 m/S 755 mmHg 69%
    08:00 +28°C° 0 mm 2 m/S 755 mmHg 63%
    09:00 +30°C° 0 mm 2 m/S 755 mmHg 57%
    10:00 +31°C° 0 mm 3 m/S 755 mmHg 50%
    11:00 +33°C° 0 mm 3 m/S 755 mmHg 48%
    12:00 +33°C° 0 mm 3 m/S 754 mmHg 45%
    13:00 +34°C° 0 mm 3 m/S 754 mmHg 43%
    14:00 +34°C° 0 mm 3 m/S 753 mmHg 43%
    15:00 +33°C° 0 mm 3 m/S 753 mmHg 43%
    16:00 +33°C° 0 mm 3 m/S 753 mmHg 43%
    17:00 +31°C° 0 mm 3 m/S 753 mmHg 48%
    18:00 +29°C° 0 mm 2 m/S 753 mmHg 54%
    19:00 +28°C° 0 mm 2 m/S 753 mmHg 59%
    20:00 +27°C° 0 mm 2 m/S 753 mmHg 62%
    21:00 +27°C° 0 mm 2 m/S 754 mmHg 64%
    22:00 +26°C° 0 mm 2 m/S 754 mmHg 67%
    23:00 +26°C° 0 mm 2 m/S 754 mmHg 67%

    Morgen, 29 Mai, Freitag

    Zeit Temperatur Niederschläge Wind Luftdruck Luftfeuchtigkeit
    00:00 +26°C° 0 mm 2 m/S 753 mmHg 68%
    01:00 +26°C° 0 mm 2 m/S 753 mmHg 69%
    02:00 +25°C° 0 mm 3 m/S 753 mmHg 71%
    03:00 +25°C° 0 mm 3 m/S 752 mmHg 72%
    04:00 +23°C° 0 mm 4 m/S 752 mmHg 74%
    05:00 +24°C° 0.2 mm 3 m/S 753 mmHg 77%
    06:00 +24°C° 0.2 mm 3 m/S 753 mmHg 81%
    07:00 +22°C° 0.2 mm 3 m/S 754 mmHg 84%
    08:00 +22°C° 0.5 mm 3 m/S 754 mmHg 86%
    09:00 +22°C° 0.5 mm 3 m/S 754 mmHg 88%
    10:00 +21°C° 0.5 mm 3 m/S 754 mmHg 90%
    11:00 +22°C° 0.4 mm 3 m/S 754 mmHg 89%
    12:00 +22°C° 0.4 mm 3 m/S 753 mmHg 89%
    13:00 +22°C° 0.4 mm 4 m/S 753 mmHg 88%
    14:00 +23°C° 0 mm 4 m/S 752 mmHg 86%
    15:00 +23°C° 0 mm 4 m/S 752 mmHg 84%
    16:00 +25°C° 0 mm 5 m/S 751 mmHg 82%
    17:00 +23°C° 0 mm 4 m/S 752 mmHg 85%
    18:00 +23°C° 0 mm 4 m/S 752 mmHg 89%
    19:00 +22°C° 0 mm 3 m/S 752 mmHg 92%
    20:00 +22°C° 0 mm 3 m/S 752 mmHg 93%
    21:00 +21°C° 0 mm 3 m/S 753 mmHg 95%
    22:00 +21°C° 0 mm 2 m/S 753 mmHg 96%
    23:00 +21°C° 0 mm 2 m/S 753 mmHg 96%

    übermorgen, 30 Mai, Samstag

    Zeit Temperatur Niederschläge Wind Luftdruck Luftfeuchtigkeit
    00:00 +21°C° 0 mm 2 m/S 753 mmHg 97%
    01:00 +20°C° 0 mm 2 m/S 753 mmHg 97%
    02:00 +20°C° 0 mm 2 m/S 753 mmHg 97%
    03:00 +20°C° 0 mm 2 m/S 753 mmHg 97%
    04:00 +21°C° 0 mm 1 m/S 753 mmHg 97%
    05:00 +22°C° 0 mm 1 m/S 753 mmHg 93%
    06:00 +23°C° 0 mm 1 m/S 754 mmHg 89%
    07:00 +24°C° 0 mm 1 m/S 754 mmHg 86%
    08:00 +25°C° 0 mm 1 m/S 754 mmHg 81%
    09:00 +27°C° 0 mm 1 m/S 754 mmHg 77%
    10:00 +28°C° 0 mm 1 m/S 754 mmHg 72%
    11:00 +29°C° 0 mm 1 m/S 754 mmHg 67%
    12:00 +31°C° 0 mm 1 m/S 753 mmHg 61%
    13:00 +32°C° 0 mm 1 m/S 753 mmHg 55%
    14:00 +32°C° 0 mm 2 m/S 752 mmHg 55%
    15:00 +32°C° 0 mm 2 m/S 752 mmHg 54%
    16:00 +32°C° 0 mm 2 m/S 751 mmHg 53%
    17:00 +31°C° 0 mm 2 m/S 752 mmHg 59%
    18:00 +30°C° 0 mm 2 m/S 752 mmHg 64%
    19:00 +28°C° 0 mm 2 m/S 752 mmHg 69%
    20:00 +28°C° 0 mm 2 m/S 753 mmHg 71%
    21:00 +27°C° 0 mm 2 m/S 753 mmHg 73%
    22:00 +27°C° 0 mm 2 m/S 753 mmHg 75%
    23:00 +26°C° 0 mm 1 m/S 753 mmHg 76%

    31 Mai, Sonntag

    Zeit Temperatur Niederschläge Wind Luftdruck Luftfeuchtigkeit
    00:00 +26°C° 0 mm 1 m/S 753 mmHg 77%
    01:00 +26°C° 0 mm 1 m/S 753 mmHg 77%
    02:00 +26°C° 0 mm 1 m/S 753 mmHg 78%
    03:00 +24°C° 0 mm 0 m/S 753 mmHg 79%
    04:00 +24°C° 0 mm 0 m/S 753 mmHg 80%
    05:00 +24°C° 0 mm 0 m/S 753 mmHg 79%
    06:00 +27°C° 0 mm 1 m/S 753 mmHg 78%
    07:00 +27°C° 0 mm 1 m/S 753 mmHg 78%
    08:00 +28°C° 0 mm 2 m/S 753 mmHg 76%
    09:00 +29°C° 0 mm 2 m/S 753 mmHg 75%
    10:00 +30°C° 0 mm 2 m/S 754 mmHg 73%
    11:00 +30°C° 0.3 mm 3 m/S 753 mmHg 76%
    12:00 +29°C° 0.3 mm 4 m/S 753 mmHg 78%
    13:00 +29°C° 0.3 mm 4 m/S 753 mmHg 80%
    14:00 +29°C° 0.3 mm 4 m/S 752 mmHg 80%
    15:00 +29°C° 0.3 mm 4 m/S 752 mmHg 79%
    16:00 +28°C° 0.3 mm 4 m/S 752 mmHg 78%
    17:00 +27°C° 0.2 mm 4 m/S 752 mmHg 81%
    18:00 +26°C° 0.2 mm 4 m/S 752 mmHg 85%
    19:00 +25°C° 0.2 mm 4 m/S 753 mmHg 88%
    20:00 +23°C° 0 mm 4 m/S 753 mmHg 88%
    21:00 +24°C° 0 mm 3 m/S 754 mmHg 88%
    22:00 +22°C° 0 mm 3 m/S 754 mmHg 88%
    23:00 +22°C° 0 mm 3 m/S 754 mmHg 87%

    1 Juni, Montag

    Zeit Temperatur Niederschläge Wind Luftdruck Luftfeuchtigkeit
    00:00 +23°C° 0 mm 2 m/S 754 mmHg 87%
    01:00 +23°C° 0 mm 2 m/S 753 mmHg 86%
    02:00 +21°C° 0 mm 2 m/S 754 mmHg 86%
    03:00 +21°C° 0 mm 2 m/S 754 mmHg 85%
    04:00 +21°C° 0 mm 2 m/S 754 mmHg 84%
    05:00 +23°C° 0 mm 2 m/S 754 mmHg 81%
    06:00 +24°C° 0 mm 2 m/S 754 mmHg 78%
    07:00 +25°C° 0 mm 2 m/S 755 mmHg 74%
    08:00 +27°C° 0 mm 2 m/S 755 mmHg 69%
    09:00 +28°C° 0 mm 2 m/S 755 mmHg 63%
    10:00 +30°C° 0 mm 1 m/S 755 mmHg 58%
    11:00 +31°C° 0 mm 2 m/S 754 mmHg 54%
    12:00 +32°C° 0 mm 2 m/S 753 mmHg 50%
    13:00 +34°C° 0 mm 2 m/S 753 mmHg 46%
    14:00 +34°C° 0 mm 2 m/S 752 mmHg 46%
    15:00 +34°C° 0 mm 2 m/S 752 mmHg 46%
    16:00 +34°C° 0 mm 2 m/S 751 mmHg 46%
    17:00 +31°C° 0 mm 2 m/S 751 mmHg 53%
    18:00 +30°C° 0 mm 2 m/S 752 mmHg 60%
    19:00 +28°C° 0 mm 2 m/S 752 mmHg 67%
    20:00 +27°C° 0 mm 2 m/S 752 mmHg 72%
    21:00 +27°C° 0 mm 2 m/S 753 mmHg 77%
    22:00 +26°C° 0 mm 2 m/S 753 mmHg 82%
    23:00 +26°C° 0 mm 1 m/S 753 mmHg 83%

    2 Juni, Dienstag

    Zeit Temperatur Niederschläge Wind Luftdruck Luftfeuchtigkeit
    00:00 +26°C° 0 mm 1 m/S 752 mmHg 83%
    01:00 +26°C° 0 mm 1 m/S 752 mmHg 84%
    02:00 +25°C° 0 mm 1 m/S 752 mmHg 86%
    03:00 +25°C° 0 mm 1 m/S 752 mmHg 87%
    04:00 +25°C° 0 mm 1 m/S 751 mmHg 89%
    05:00 +25°C° 0 mm 2 m/S 752 mmHg 85%
    06:00 +26°C° 0 mm 2 m/S 752 mmHg 82%
    07:00 +27°C° 0 mm 3 m/S 752 mmHg 78%
    08:00 +28°C° 0 mm 3 m/S 752 mmHg 76%
    09:00 +29°C° 0 mm 3 m/S 752 mmHg 73%
    10:00 +30°C° 0 mm 3 m/S 752 mmHg 71%
    11:00 +30°C° 0 mm 3 m/S 751 mmHg 71%
    12:00 +30°C° 0 mm 4 m/S 751 mmHg 71%
    13:00 +30°C° 0 mm 4 m/S 751 mmHg 72%
    14:00 +29°C° 0 mm 3 m/S 750 mmHg 75%
    15:00 +29°C° 0 mm 3 m/S 750 mmHg 78%
    16:00 +28°C° 0 mm 3 m/S 749 mmHg 81%
    17:00 +27°C° 0 mm 2 m/S 750 mmHg 83%
    18:00 +26°C° 0 mm 2 m/S 750 mmHg 85%
    19:00 +26°C° 0 mm 2 m/S 750 mmHg 87%
    20:00 +26°C° 0 mm 2 m/S 750 mmHg 89%
    21:00 +25°C° 0 mm 2 m/S 751 mmHg 91%
    22:00 +25°C° 0 mm 1 m/S 751 mmHg 93%
    23:00 +25°C° 0 mm 1 m/S 750 mmHg 93%
    Mehr zeigen